TimeMDT,TemperatureF,Dew PointF,Humidity,Sea Level PressureIn,VisibilityMPH,Wind Direction,Wind SpeedMPH,Gust SpeedMPH,PrecipitationIn,Events,Conditions,WindDirDegrees,DateUTC
12:15 AM,24.8,14.0,64,30.31,10.0,North,-9999.0,-,N/A,,Clear,0,2013-10-20 06:15:00
12:35 AM,23.0,14.0,68,30.29,10.0,North,-9999.0,-,N/A,,Clear,0,2013-10-20 06:35:00
12:55 AM,23.0,14.0,68,30.28,10.0,North,-9999.0,-,N/A,,Clear,0,2013-10-20 06:55:00
1:15 AM,23.0,14.0,68,30.29,10.0,North,-9999.0,-,N/A,,Clear,0,2013-10-20 07:15:00
1:35 AM,21.2,14.0,74,30.27,10.0,North,-9999.0,-,N/A,,Clear,0,2013-10-20 07:35:00
1:55 AM,21.2,14.0,74,30.27,10.0,West,40.3,-,N/A,,Clear,270,2013-10-20 07:55:00
2:15 AM,21.2,14.0,74,30.27,10.0,West,40.3,-,N/A,,Clear,270,2013-10-20 08:15:00
2:35 AM,21.2,14.0,74,30.27,10.0,West,41.4,-,N/A,,Clear,270,2013-10-20 08:35:00
2:55 AM,21.2,14.0,74,30.27,10.0,North,-9999.0,-,N/A,,Clear,0,2013-10-20 08:55:00
3:15 AM,21.2,14.0,74,30.27,10.0,West,38.0,-,N/A,,Clear,270,2013-10-20 09:15:00
3:35 AM,21.2,14.0,74,30.25,10.0,North,-9999.0,-,N/A,,Clear,0,2013-10-20 09:35:00
3:55 AM,21.2,14.0,74,30.25,10.0,West,42.6,-,N/A,,Clear,270,2013-10-20 09:55:00
4:15 AM,21.2,14.0,74,30.25,10.0,West,41.4,-,N/A,,Clear,270,2013-10-20 10:15:00
4:35 AM,21.2,14.0,74,30.24,10.0,West,41.4,-,N/A,,Clear,280,2013-10-20 10:35:00
4:55 AM,21.2,14.0,74,30.23,10.0,North,-9999.0,-,N/A,,Clear,0,2013-10-20 10:55:00
5:15 AM,21.2,14.0,74,30.23,10.0,North,-9999.0,-,N/A,,Clear,0,2013-10-20 11:15:00
5:35 AM,21.2,14.0,74,30.23,10.0,North,-9999.0,-,N/A,,Clear,0,2013-10-20 11:35:00
5:55 AM,21.2,14.0,74,30.23,10.0,West,39.1,-,N/A,,Clear,270,2013-10-20 11:55:00
6:15 AM,21.2,14.0,74,30.23,10.0,North,-9999.0,-,N/A,,Clear,0,2013-10-20 12:15:00
6:35 AM,21.2,14.0,74,30.23,10.0,North,-9999.0,-,N/A,,Clear,0,2013-10-20 12:35:00
6:55 AM,21.2,14.0,74,30.22,10.0,North,-9999.0,-,N/A,,Clear,0,2013-10-20 12:55:00
7:15 AM,21.2,14.0,74,30.22,10.0,West,41.4,-,N/A,,Clear,270,2013-10-20 13:15:00
7:35 AM,21.2,14.0,74,30.22,10.0,West,36.8,-,N/A,,Clear,270,2013-10-20 13:35:00
7:55 AM,21.2,14.0,74,30.22,10.0,West,38.0,-,N/A,,Clear,270,2013-10-20 13:55:00
8:15 AM,21.2,14.0,74,30.23,10.0,North,-9999.0,-,N/A,,Clear,0,2013-10-20 14:15:00
8:35 AM,21.2,14.0,74,30.23,10.0,North,-9999.0,-,N/A,,Clear,0,2013-10-20 14:35:00
8:55 AM,21.2,14.0,74,30.25,10.0,West,35.7,-,N/A,,Clear,260,2013-10-20 14:55:00
9:15 AM,23.0,14.0,68,30.26,10.0,WSW,29.9,-,N/A,,Clear,250,2013-10-20 15:15:00
9:35 AM,24.8,14.0,64,30.27,10.0,WSW,24.2,31.1,N/A,,Clear,250,2013-10-20 15:35:00
9:55 AM,26.6,15.8,64,30.26,10.0,WSW,26.5,31.1,N/A,,Clear,250,2013-10-20 15:55:00
10:15 AM,26.6,15.8,64,30.25,10.0,WSW,27.6,35.7,N/A,,Clear,250,2013-10-20 16:15:00
10:35 AM,26.6,15.8,64,30.25,10.0,WSW,26.5,35.7,N/A,,Clear,250,2013-10-20 16:35:00
10:55 AM,26.6,17.6,69,30.24,10.0,WSW,27.6,38.0,N/A,,Clear,250,2013-10-20 16:55:00
11:15 AM,28.4,17.6,64,30.24,10.0,WSW,31.1,40.3,N/A,,Clear,240,2013-10-20 17:15:00
11:35 AM,28.4,17.6,64,30.25,10.0,WSW,24.2,35.7,N/A,,Clear,250,2013-10-20 17:35:00
11:55 AM,28.4,15.8,59,30.24,10.0,West,29.9,39.1,N/A,,Clear,270,2013-10-20 17:55:00
12:15 PM,30.2,15.8,55,30.24,10.0,West,31.1,38.0,N/A,,Clear,270,2013-10-20 18:15:00
12:35 PM,30.2,15.8,55,30.24,10.0,West,34.5,39.1,N/A,,Clear,270,2013-10-20 18:35:00
12:55 PM,32.0,17.6,55,30.25,10.0,West,28.8,40.3,N/A,,Clear,270,2013-10-20 18:55:00
1:15 PM,32.0,17.6,55,30.24,10.0,WSW,19.6,38.0,N/A,,Clear,250,2013-10-20 19:15:00
1:35 PM,32.0,17.6,55,30.23,10.0,West,25.3,34.5,N/A,,Scattered Clouds,260,2013-10-20 19:35:00
1:55 PM,32.0,17.6,55,30.22,10.0,West,29.9,40.3,N/A,,Scattered Clouds,270,2013-10-20 19:55:00
2:15 PM,32.0,17.6,55,30.22,10.0,West,31.1,36.8,N/A,,Scattered Clouds,270,2013-10-20 20:15:00
2:35 PM,32.0,17.6,55,30.22,10.0,West,31.1,36.8,N/A,,Mostly Cloudy,260,2013-10-20 20:35:00
2:55 PM,32.0,17.6,55,30.23,10.0,WSW,20.7,38.0,N/A,,Overcast,250,2013-10-20 20:55:00
3:15 PM,32.0,15.8,51,30.22,10.0,West,26.5,38.0,N/A,,Overcast,260,2013-10-20 21:15:00
3:35 PM,32.0,14.0,48,30.22,10.0,West,28.8,44.9,N/A,,Overcast,280,2013-10-20 21:35:00
3:55 PM,32.0,14.0,48,30.23,10.0,West,25.3,43.7,N/A,,Overcast,270,2013-10-20 21:55:00
4:15 PM,32.0,15.8,51,30.23,10.0,West,29.9,40.3,N/A,,Overcast,280,2013-10-20 22:15:00
4:35 PM,32.0,15.8,51,30.23,10.0,West,26.5,35.7,N/A,,Mostly Cloudy,260,2013-10-20 22:35:00
4:55 PM,32.0,14.0,48,30.23,10.0,West,36.8,44.9,N/A,,Overcast,260,2013-10-20 22:55:00
5:15 PM,32.0,14.0,48,30.23,10.0,West,38.0,48.3,N/A,,Scattered Clouds,270,2013-10-20 23:15:00
5:35 PM,30.2,14.0,51,30.25,10.0,West,28.8,43.7,N/A,,Clear,270,2013-10-20 23:35:00
5:55 PM,30.2,14.0,51,30.25,10.0,West,27.6,32.2,N/A,,Clear,280,2013-10-20 23:55:00
6:15 PM,30.2,14.0,51,30.25,10.0,West,21.9,28.8,N/A,,Mostly Cloudy,280,2013-10-21 00:15:00
6:35 PM,28.4,12.2,51,30.26,10.0,West,21.9,28.8,N/A,,Mostly Cloudy,280,2013-10-21 00:35:00
6:55 PM,28.4,12.2,51,30.27,10.0,West,18.4,27.6,N/A,,Overcast,280,2013-10-21 00:55:00
7:15 PM,28.4,12.2,51,30.27,10.0,WNW,20.7,-,N/A,,Overcast,290,2013-10-21 01:15:00
7:35 PM,28.4,12.2,51,30.28,10.0,WNW,18.4,23.0,N/A,,Mostly Cloudy,300,2013-10-21 01:35:00
7:55 PM,28.4,14.0,55,30.28,10.0,WNW,17.3,-,N/A,,Mostly Cloudy,290,2013-10-21 01:55:00
8:15 PM,28.4,14.0,55,30.29,10.0,North,-9999.0,-,N/A,,Mostly Cloudy,0,2013-10-21 02:15:00
8:35 PM,26.6,14.0,59,30.29,10.0,North,-9999.0,-,N/A,,Overcast,0,2013-10-21 02:35:00
8:55 PM,26.6,14.0,59,30.29,10.0,North,-9999.0,-,N/A,,Mostly Cloudy,0,2013-10-21 02:55:00
9:15 PM,26.6,14.0,59,30.30,10.0,North,5.8,-,N/A,,Mostly Cloudy,10,2013-10-21 03:15:00
9:35 PM,24.8,17.6,74,30.30,10.0,North,-9999.0,-,N/A,,Mostly Cloudy,0,2013-10-21 03:35:00
9:55 PM,23.0,21.2,93,30.30,10.0,NE,5.8,-,N/A,,Scattered Clouds,40,2013-10-21 03:55:00
10:15 PM,23.0,19.4,86,30.30,10.0,NE,5.8,-,N/A,,Clear,40,2013-10-21 04:15:00
10:35 PM,23.0,21.2,93,30.30,1.0,North,-9999.0,-,N/A,,Mostly Cloudy,0,2013-10-21 04:35:00
10:55 PM,23.0,21.2,93,30.30,0.2,North,-9999.0,-,N/A,Fog,Light Freezing Fog,0,2013-10-21 04:55:00
11:15 PM,23.0,21.2,93,30.30,0.2,North,-9999.0,-,N/A,Fog,Light Freezing Fog,0,2013-10-21 05:15:00
11:35 PM,23.0,21.2,93,30.30,0.2,North,-9999.0,-,N/A,Fog,Light Freezing Fog,0,2013-10-21 05:35:00
11:55 PM,23.0,21.2,93,30.30,0.2,North,-9999.0,-,N/A,Fog,Light Freezing Fog,0,2013-10-21 05:55:00